This is the latest recevied weather packets stored in our database for station/object KD5FHA. If no packets are shown the sender has not sent any weather packets the latest 10 day(s).
| Time | Temp. | Humidity | Pressure | Rain* | Wind** | Luminosity | Snow |
|---|---|---|---|---|---|---|---|
| 1778164976 | 15.56° C | 73% | 1020.5 hPa | 0 mm | - | 130 W/m² | - |
| 1778164672 | 16.11° C | 74% | 1020.6 hPa | 0 mm | - | 148 W/m² | - |
| 1778164370 | 16.11° C | 76% | 1020.7 hPa | 0 mm | - | 141 W/m² | - |
| 1778164066 | 15.56° C | 76% | 1020.7 hPa | 0 mm | - | 82 W/m² | - |
| 1778163762 | 15.56° C | 77% | 1020.6 hPa | 0 mm | - | 93 W/m² | - |
| 1778163459 | 15.56° C | 78% | 1020.5 hPa | 0 mm | - | 275 W/m² | - |
| 1778163156 | 15° C | 79% | 1020.4 hPa | 0 mm | - | 133 W/m² | - |
| 1778162852 | 15° C | 80% | 1020.6 hPa | 0 mm | - | 101 W/m² | - |
| 1778162550 | 15° C | 81% | 1020.6 hPa | 0 mm | - | 90 W/m² | - |
| 1778162246 | 14.44° C | 81% | 1020.7 hPa | 0 mm | - | 78 W/m² | - |
| 1778161944 | 14.44° C | 81% | 1020.8 hPa | 0 mm | - | 78 W/m² | - |
| 1778161640 | 14.44° C | 83% | 1020.8 hPa | 0 mm | - | 93 W/m² | - |
| 1778161336 | 14.44° C | 84% | 1020.7 hPa | 0 mm | - | 126 W/m² | - |
| 1778161032 | 14.44° C | 85% | 1020.5 hPa | 0 mm | - | 85 W/m² | - |
| 1778160730 | 13.89° C | 87% | 1020.8 hPa | 0 mm | - | 88 W/m² | - |
| 1778160427 | 13.89° C | 88% | 1020.6 hPa | 0 mm | - | 84 W/m² | - |
| 1778160123 | 13.33° C | 88% | 1020.8 hPa | 0 mm | - | 75 W/m² | - |
| 1778159820 | 13.33° C | 89% | 1020.7 hPa | 0 mm | - | 76 W/m² | - |
| 1778159518 | 13.33° C | 90% | 1021 hPa | 0 mm | - | 82 W/m² | - |
| 1778159214 | 13.33° C | 91% | 1021.2 hPa | 0 mm | - | 105 W/m² | - |
| 1778158912 | 12.78° C | 92% | 1021.1 hPa | 0 mm | - | 99 W/m² | - |
| 1778158610 | 12.78° C | 92% | 1020.8 hPa | 0 mm | - | 95 W/m² | - |
| 1778158308 | 12.22° C | 93% | 1021.1 hPa | 0 mm | - | 78 W/m² | - |
| 1778158003 | 12.22° C | 93% | 1021 hPa | 0 mm | - | 70 W/m² | - |
| 1778157701 | 12.22° C | 94% | 1021 hPa | 0 mm | - | 67 W/m² | - |
* Rain latest hour (hover to see other rain measurements)
** Current wind speed in m/s (hover to see current wind gust speed)